Change the Weather History Date:

Monday, November 5, 2012

  Actual Average (KNHK) Record (KNHK)
Temperature  
Mean Temperature 40 °F -  
Max Temperature 46 °F 62 °F 81 °F (2003)
Min Temperature 33 °F 45 °F 28 °F (2006)
Degree Days  
Heating Degree Days 26    
Moisture  
Dew Point 29 °F    
Average Humidity 71    
Maximum Humidity 93    
Minimum Humidity 43    
Precipitation  
Precipitation 0.00 in - - ()
Sea Level Pressure  
Sea Level Pressure 30.10 in    
Wind  
Wind Speed 2 mph (NW)    
Max Wind Speed 8 mph    
Max Gust Speed -    
Visibility 10 miles    
Events      
Averages and records for this station are not official NWS values.
T = Trace of Precipitation, MM = Missing Value Source: NWS Daily Summary

Daily Weather History Graph

Daily Weather History Graph

Search for Another Location

Airport or City:

Trip Planner

Search our weather history database for the weather conditions in past years. The results will help you decide how hot, cold, wet, or windy it might be!

Date:

Astronomy

Nov. 05, 2012 Rise Set
Actual Time 6:37 AM EST 5:01 PM EST
Civil Twilight 6:09 AM EST 5:29 PM EST
Nautical Twilight 5:38 AM EST 6:00 PM EST
Astronomical Twilight 5:07 AM EST 6:31 PM EST
Moon 10:37 PM EST (11/5) 11:55 AM EST (11/5)
Length of Visible Light 11h 20m
Length of Day
10h 24m
Waning Gibbous, 63% of the Moon is Illuminated
Nov 5
Waning Gibbous
Nov 6
Last Quarter
Nov 13
New
Nov 20
First Quarter
Nov 28
Full

Hourly Weather History & Observations

Time (EST) Temp. Windchill Dew Point Humidity Pressure Visibility Wind Dir Wind Speed Gust Speed Precip Events Conditions
12:12 AM 39.2 °F - 30.2 °F 70% 30.07 in 10.0 mi Calm Calm - N/A   Clear
12:34 AM 37.4 °F - 30.2 °F 75% 30.07 in 10.0 mi Calm Calm - N/A   Scattered Clouds
12:55 AM 35.6 °F 32.8 °F 32.0 °F 87% 30.07 in 10.0 mi West 3.5 mph - N/A   Scattered Clouds
1:16 AM 33.8 °F - 32.0 °F 93% 30.06 in 10.0 mi Calm Calm - N/A   Clear
1:38 AM 33.8 °F - 30.2 °F 87% 30.06 in 10.0 mi Calm Calm - N/A   Clear
1:59 AM 33.8 °F 30.8 °F 30.2 °F 87% 30.05 in 10.0 mi West 3.5 mph - N/A   Mostly Cloudy
2:20 AM 33.8 °F - 30.2 °F 87% 30.05 in 10.0 mi Calm Calm - N/A   Overcast
2:42 AM 33.8 °F 30.8 °F 30.2 °F 87% 30.04 in 10.0 mi West 3.5 mph - N/A   Overcast
3:03 AM 35.6 °F 32.8 °F 30.2 °F 81% 30.04 in 10.0 mi WNW 3.5 mph - N/A   Overcast
3:24 AM 35.6 °F 32.8 °F 30.2 °F 81% 30.04 in 10.0 mi West 3.5 mph - N/A   Overcast
3:46 AM 35.6 °F 32.8 °F 32.0 °F 87% 30.04 in 10.0 mi West 3.5 mph - N/A   Overcast
4:07 AM 35.6 °F - 32.0 °F 87% 30.05 in 10.0 mi Calm Calm - N/A   Overcast
4:28 AM 37.4 °F - 32.0 °F 81% 30.05 in 10.0 mi Calm Calm - N/A   Overcast
4:49 AM 37.4 °F 34.9 °F 32.0 °F 81% 30.05 in 10.0 mi West 3.5 mph - N/A   Overcast
5:11 AM 37.4 °F 34.9 °F 32.0 °F 81% 30.06 in 10.0 mi West 3.5 mph - N/A   Overcast
5:53 AM 37.4 °F 34.9 °F 32.0 °F 81% 30.06 in 10.0 mi WNW 3.5 mph - N/A   Overcast
6:14 AM 37.4 °F 33.8 °F 32.0 °F 81% 30.07 in 10.0 mi West 4.6 mph - N/A   Overcast
6:36 AM 37.4 °F - 32.0 °F 81% 30.07 in 10.0 mi Calm Calm - N/A   Overcast
6:57 AM 37.4 °F - 32.0 °F 81% 30.08 in 10.0 mi Calm Calm - N/A   Overcast
7:18 AM 37.4 °F - 32.0 °F 81% 30.09 in 10.0 mi Calm Calm - N/A   Overcast
7:39 AM 39.2 °F - 32.0 °F 75% 30.10 in 10.0 mi Calm Calm - N/A   Overcast
8:01 AM 39.2 °F 37.0 °F 32.0 °F 75% 30.11 in 10.0 mi North 3.5 mph - N/A   Overcast
8:43 AM 41.0 °F 37.1 °F 28.4 °F 61% 30.11 in 10.0 mi NW 5.8 mph - N/A   Overcast
9:26 AM 41.0 °F 37.1 °F 26.6 °F 57% 30.11 in 10.0 mi NNW 5.8 mph - N/A   Overcast
9:47 AM 41.0 °F 35.8 °F 26.6 °F 57% 30.12 in 10.0 mi NNW 8.1 mph - N/A   Overcast
10:29 AM 42.8 °F 40.1 °F 26.6 °F 53% 30.12 in 10.0 mi North 4.6 mph - N/A   Mostly Cloudy
10:50 AM 42.8 °F 41.1 °F 26.6 °F 53% 30.12 in 10.0 mi NW 3.5 mph - N/A   Scattered Clouds
11:12 AM 44.6 °F 40.2 °F 26.6 °F 49% 30.11 in 10.0 mi NW 8.1 mph - N/A   Clear
11:33 AM 44.6 °F 40.7 °F 24.8 °F 46% 30.10 in 10.0 mi North 6.9 mph - N/A   Clear
11:54 AM 44.6 °F 40.7 °F 26.6 °F 49% 30.10 in 10.0 mi NNW 6.9 mph - N/A   Clear
12:15 PM 44.6 °F 40.7 °F 24.8 °F 46% 30.09 in 10.0 mi NNW 6.9 mph - N/A   Clear
12:37 PM 46.4 °F 42.9 °F 26.6 °F 46% 30.08 in 10.0 mi WNW 6.9 mph - N/A   Clear
12:58 PM 44.6 °F 42.2 °F 24.8 °F 46% 30.07 in 10.0 mi NW 4.6 mph - N/A   Clear
2:02 PM 46.4 °F 42.9 °F 24.8 °F 43% 30.07 in 10.0 mi NW 6.9 mph - N/A   Clear
2:23 PM 46.4 °F 42.9 °F 24.8 °F 43% 30.07 in 10.0 mi NNW 6.9 mph - N/A   Clear
2:44 PM 46.4 °F - 26.6 °F 46% 30.06 in 10.0 mi Calm Calm - N/A   Clear
3:05 PM 46.4 °F 43.5 °F 24.8 °F 43% 30.06 in 10.0 mi NNW 5.8 mph - N/A   Clear
3:26 PM 46.4 °F 43.5 °F 26.6 °F 46% 30.07 in 10.0 mi NNW 5.8 mph - N/A   Clear
3:48 PM 46.4 °F 44.3 °F 26.6 °F 46% 30.07 in 10.0 mi NNW 4.6 mph - N/A   Clear
4:09 PM 46.4 °F - 26.6 °F 46% 30.08 in 10.0 mi Calm Calm - N/A   Clear
4:51 PM 44.6 °F - 26.6 °F 49% 30.09 in 10.0 mi Calm Calm - N/A   Clear
5:13 PM 41.0 °F - 30.2 °F 65% 30.09 in 10.0 mi Calm Calm - N/A   Clear
5:34 PM 41.0 °F - 30.2 °F 65% 30.11 in 10.0 mi Calm Calm - N/A   Clear
5:55 PM 37.4 °F - 30.2 °F 75% 30.12 in 10.0 mi Calm Calm - N/A   Clear
6:16 PM 37.4 °F - 30.2 °F 75% 30.13 in 10.0 mi Calm Calm - N/A   Clear
6:59 PM 35.6 °F - 30.2 °F 81% 30.14 in 10.0 mi Calm Calm - N/A   Clear
7:20 PM 33.8 °F - 30.2 °F 87% 30.14 in 10.0 mi Calm Calm - N/A   Clear
7:41 PM 35.6 °F - 30.2 °F 81% 30.14 in 10.0 mi Calm Calm - N/A   Clear
8:03 PM 35.6 °F - 30.2 °F 81% 30.15 in 10.0 mi Calm Calm - N/A   Clear
8:24 PM 33.8 °F - 30.2 °F 87% 30.16 in 10.0 mi Calm Calm - N/A   Clear
9:28 PM 33.8 °F - 30.2 °F 87% 30.19 in 10.0 mi Calm Calm - N/A   Clear
9:49 PM 33.8 °F 30.8 °F 30.2 °F 87% 30.19 in 10.0 mi ENE 3.5 mph - N/A   Clear
10:10 PM 35.6 °F - 30.2 °F 81% 30.19 in 10.0 mi Calm Calm - N/A   Clear
10:32 PM 33.8 °F - 30.2 °F 87% 30.19 in 10.0 mi Calm Calm - N/A   Clear
10:53 PM 33.8 °F - 30.2 °F 87% 30.19 in 10.0 mi Calm Calm - N/A   Clear
11:14 PM 33.8 °F - 30.2 °F 87% 30.19 in 10.0 mi Calm Calm - N/A   Clear
11:36 PM 33.8 °F - 30.2 °F 87% 30.18 in 10.0 mi Calm Calm - N/A   Clear
11:57 PM 33.8 °F - 30.2 °F 87% 30.19 in 10.0 mi Calm Calm - N/A   Clear